Location: Clement
(38.0570°N, 90.1654°W)
Time: 15:59:34
(UTC+00:00)

Daily predictions for brighter satellites

Satellite Brightness Start Highest point End
(mag) Time Altitude Azimuth Time Altitude Azimuth Time Altitude Azimuth
Lacrosse 5 rocket 2.4 12:01:34 15° W 12:04:11 27° NW 12:07:56 10° NNE
Cosmos 1452 Rocket 3.5 12:01:11 10° NNW 12:06:25 75° WSW 12:11:38 10° S
ARIANE 5 R/B 3.8 12:02:50 10° NNW 12:06:28 20° WNW 12:10:07 10° WSW
NOAA 12 4.4 12:02:38 10° N 12:07:35 42° WNW 12:12:29 10° SW
Cosmos 2151 2.8 12:04:30 10° SSW 12:08:39 72° W 12:12:52 10° N
BREEZE-M R/B 3.5 12:04:17 12° WNW 12:10:51 66° SW 12:14:31 10° SE
Cosmos 1378 3.8 12:08:12 10° N 12:11:35 51° E 12:14:57 10° SSE
USA 229 DEB 4.4 12:07:55 10° WSW 12:13:15 29° NW 12:19:00 10° NNE
USA 229 4.3 12:07:57 10° WSW 12:13:18 29° NW 12:19:04 10° NNE
ARGOS 3.6 12:08:57 10° N 12:13:55 39° WNW 12:18:52 10° SW
CZ-2C R/B 2.6 12:11:04 10° N 12:14:50 72° WNW 12:18:36 10° SSW
SJ-11-01 4.3 12:10:54 10° N 12:15:29 58° WNW 12:20:04 10° SSW
Cosmos 1933 4.4 12:12:51 10° NW 12:16:04 24° W 12:19:16 10° SW
Cosmos 2278 Rocket 2.5 12:10:31 10° NNW 12:16:10 71° ENE 12:21:48 10° SSE
Cosmos 2237 Rocket 2.2 12:14:13 10° SSW 12:19:53 77° WNW 12:25:34 10° NNE
SL-08 R/B 4.2 12:16:37 10° SSW 12:20:38 28° W 12:24:38 10° NW
Cosmos 1842 Rocket 3.6 12:16:21 10° N 12:20:48 89° E 12:25:15 10° S
ATLAS 5 CENTAUR R/B 3.1 12:21:20 10° S 12:24:20 32° ESE 12:27:29 10° NE
Cosmos 1862 4.3 12:23:18 10° SW 12:26:23 23° WNW 12:29:30 10° NNW
Cosmos 1500 3.2 12:24:29 10° SSW 12:27:57 50° W 12:31:25 10° N
Cosmos 1544 3.8 12:29:39 10° SW 12:32:20 24° WNW 12:35:01 10° NNW
DELTA 2 DEB (DPAF) 4.3 12:30:45 10° S 12:34:55 52° W 12:39:08 10° NNW
SAR-Lupe-2 3.5 23:06:06 10° SSE 23:09:39 86° ENE 23:13:15 10° NNW
ATLAS 2AS CENTAUR R/B 4.3 23:06:33 10° N 23:09:56 14° NNE 23:13:15 10° ENE
SJ-7 4.3 23:06:33 10° SSE 23:10:30 76° ENE 23:14:30 10° N
Cosmos 1812 Rocket 4.4 23:07:07 10° SSE 23:10:50 29° E 23:14:36 10° NNE
Lacrosse 5 2.6 23:10:54 10° S 23:15:29 36° SE 23:20:05 10° ENE
Cosmos 1818 4.0 23:10:23 10° S 23:15:31 46° ESE 23:20:42 10° NE
Meteor 1-31 Rocket 3.0 23:12:12 10° SE 23:15:41 41° ENE 23:19:12 10° N
Cosmos 2263 Rocket 2.7 23:12:19 10° SW 23:17:47 61° WNW 23:23:19 10° NNE
Cosmos 1844 Rocket 3.8 23:14:04 10° SSE 23:18:27 24° ESE 23:22:52 10° NE
Cosmos 1269 Rocket 4.3 23:16:32 10° NNW 23:21:50 77° WSW 23:27:06 10° S
CORIOLIS 4.1 23:17:15 10° SSE 23:22:31 68° ENE 23:27:52 10° N
Cosmos 1666 2.4 23:19:05 10° N 23:22:36 65° E 23:26:06 10° SSE
Cosmos 2227 4.3 23:18:00 10° S 23:23:39 61° ESE 23:29:19 10° NNE
Cosmos 2227 Rocket 4.5 23:21:14 10° W 23:25:08 19° NW 23:29:02 10° N
Helios 1A 3.4 23:21:41 10° NNE 23:25:38 41° E 23:29:33 10° S
ERS-2 4.0 23:24:26 10° SSW 23:26:58 27° W 23:29:31 10° NW
Tiangong 0.4 23:25:28 10° W 23:28:00 22° SSW 23:30:32 10° SSE
Meteor 1-20 Rocket 4.5 23:24:08 10° N 23:29:29 45° ENE 23:34:53 10° SSE
Helios 1B rocket 3.7 23:26:30 10° S 23:30:15 42° W 23:34:00 10° NNW
Cosmos 1782 3.7 23:28:21 10° SSE 23:31:42 28° E 23:35:04 10° NNE
CZ-4B R/B 3.5 23:29:31 10° SSE 23:33:05 74° ENE 23:36:41 10° N
CZ-2C R/B 2.5 23:32:19 10° WSW 23:34:12 19° SSW 23:36:04 10° SSE
Cosmos 1602 3.5 23:32:06 10° N 23:35:50 78° E 23:39:33 10° S
USA 276 4.1 23:35:21 10° NW 23:36:39 13° NNW 23:37:59 10° NNE
USA 307 3.5 23:33:37 10° NNW 23:37:04 30° NE 23:39:26 16° E
ADEOS 4.5 23:35:55 10° ESE 23:40:06 25° ENE 23:44:17 10° NNE
Cosmos 1603 4.2 23:37:09 10° N 23:42:24 37° ENE 23:47:34 10° SE
Cosmos-2242 3.1 23:40:45 10° S 23:45:05 82° W 23:49:26 10° N
COSMO-SKYMED 1 2.9 23:41:10 10° NNE 23:45:20 44° E 23:49:28 10° S
USA 234 3.5 23:44:06 10° NE 23:50:32 69° NW 23:57:01 10° WSW
Cosmos 1140 Rocket 3.4 23:46:40 10° NNW 23:51:49 63° ENE 23:56:53 10° SSE
AQUARIUS 4.4 23:48:35 10° S 23:53:01 73° WSW 23:57:30 10° NNW
CBERS 1 LM4 rocket 4.4 23:50:30 10° SSE 23:55:11 51° ENE 23:59:46 10° N
Cosmos 2221 3.3 23:51:58 10° SSE 23:55:37 29° E 23:56:56 24° ENE
